OneWeb SL0256

operational
NORAD ID: 48974 Int'l Des: 2021-060 Owner: ONEWEBN Country: UK Constellation: oneweb
LEOCIRCULARPOLARONEWEB_TYPE

关于 OneWeb SL0256

正在加载描述...

实时位置

正在加载3D地球...

即将过境

高度历史

Altitude vs Time

uPlot chart will show altitude changes over time

两行轨道根数

1 48974U 21060H 25258.56928258 -.00000050 00000-0 -16426-3 0 9997
2 48974 87.8972 283.5326 0001968 89.0736 271.0620 13.16595070203494
Epoch: Sep 15, 2025 • Age: 19 hours

当前状态

高度 1209.7 km
速度 7.26 km/s
星下点 79.90°N, 30.11°W
发射日期 Jul 1, 2021
运行时间 4.2 years
类型 internet

技术详情

分类 Payload
质量 148.00 kg
干质量 140.00 kg
总质量 148.00 kg
长度 1.30 m
直径 1.00 m
跨度 5.00 m
形状 Trapezoid+2 pan
制造商 ONEWUS
平台类型 ARROW
阶段状态 In Orbit
所有者/国家 ONEWEBN/UK

大型星座

Loading constellations...